[[{"header":{"parameterUnit":"m.s-1","parameterCategory":1,"la1":30.2992,"la2":30.254,"lo1":-89.0895,"lo2":-89.0443,"dy":0.0025,"dx":0.0025,"nx":19,"ny":19,"refTime":"2026-05-20T21:00:00:Z","depth":0,"parameterNumber":2,"parameterNumberName":"U-component_of_WINDS"},"data":[0,0,0,0.5035,0.5034,0.497,0.497,0.4899,0.4898,0,0,0,0,0,0,0,0,0,0,0,0.5063,0.5063,0.5035,0.5034,0.497,0.497,0.4899,0.4898,0,0,0,0,0,0,0,0,0,0,0,0.5063,0.5063,0.5063,0.5034,0.497,0.497,0.4899,0.4943,0,0,0,0,0,0,0,0,0,0,0.5003,0.5038,0.5063,0.5063,0.5033,0.497,0.497,0.4945,0.494,0.4933,0,0.4931,0,0.4914,0.4894,0.4894,0,0,0,0.5027,0.5042,0.5017,0.5063,0.5033,0.4971,0.4997,0.4942,0.4937,0.4927,0.493,0.4927,0.4913,0.4894,0.4894,0.488,0.488,0,0,0.503,0.5056,0.502,0.5014,0.5027,0.4999,0.4995,0.4939,0.4943,0.493,0.4925,0.4911,0.4894,0.4893,0.488,0.488,0,0,0,0.5045,0.5059,0.5035,0.5017,0.5005,0.4997,0.4993,0.4945,0.4935,0.4924,0.4911,0.4893,0.4893,0.488,0.488,0.4918,0,0,0,0.5047,0.5067,0.5037,0.5052,0.5006,0.4975,0.5001,0.4939,0.4932,0.4911,0.4893,0.4892,0.4879,0.488,0.4917,0.4932,0,0,0,0.5064,0.5069,0.5063,0.5053,0.5027,0.4975,0.4962,0.4937,0.4924,0.4894,0.4892,0.4879,0.488,0.4915,0.493,0.4935,0,0,0,0.5089,0.5099,0.5064,0.5069,0.5028,0.5,0.4962,0.494,0.4919,0.4893,0.4879,0.488,0.4915,0.4928,0.4934,0.4945,0.4952,0,0,0.5115,0.5103,0.5103,0.5071,0.5056,0.5008,0.4998,0.4954,0.4926,0.4896,0.4896,0.4917,0.4929,0.4935,0.4984,0.499,0,0,0,0.512,0.5121,0.5111,0.5093,0.506,0.5032,0.4987,0.4969,0.4943,0.4917,0.492,0.4927,0.4929,0.4933,0.4938,0.4937,0.4883,0.4883,0.4883,0.5193,0.5158,0.5156,0.5114,0.5096,0.5048,0.503,0.4998,0.4968,0.4969,0.496,0.4995,0.5,0.5004,0.5004,0.4964,0.4964,0.4964,0.4964,0.5227,0.5222,0.5181,0.5165,0.5127,0.5112,0.5065,0.5044,0.5022,0.4999,0.4999,0.4976,0.5011,0.5009,0.4966,0.4966,0.4966,0.4965,0.4965,0.5271,0.5262,0.5242,0.5211,0.519,0.5145,0.5126,0.5092,0.5059,0.506,0.5045,0.5044,0.5038,0.5055,0.5055,0.5055,0.5055,0.5055,0.5056,0.5324,0.53,0.529,0.5254,0.5237,0.5209,0.516,0.5141,0.5111,0.5087,0.5087,0.5055,0.5022,0.5014,0.5057,0.5057,0.5057,0.5057,0.5056,0.5371,0.5354,0.5339,0.5321,0.5275,0.5256,0.5212,0.5176,0.5155,0.5146,0.5114,0.5095,0.5079,0.5075,0.5068,0.5123,0.5123,0.5123,0.5123,0.5407,0.5396,0.5371,0.5345,0.5316,0.5274,0.5254,0.5214,0.517,0.5154,0.5141,0.5129,0.5126,0.5112,0.5107,0.51,0.5161,0.5161,0.5161,0.5433,0.5417,0.5408,0.5367,0.5328,0.5294,0.5273,0.5243,0.5189,0.5162,0.5141,0.5139,0.5119,0.5114,0.5088,0.508,0.5067,0,0]},{"header":{"parameterUnit":"m.s-1","parameterCategory":1,"la1":30.2992,"la2":30.254,"lo1":-89.0895,"lo2":-89.0443,"dy":0.0025,"dx":0.0025,"nx":19,"ny":19,"refTime":"2026-05-20T21:00:00:Z","depth":0,"parameterNumber":3,"parameterNumberName":"V-component_of_WINDS"},"data":[0,0,0,4.5476,4.5479,4.5608,4.5608,4.5772,4.5774,0,0,0,0,0,0,0,0,0,0,0,4.544,4.5442,4.5475,4.5479,4.5608,4.5608,4.5772,4.5774,0,0,0,0,0,0,0,0,0,0,0,4.544,4.5441,4.5443,4.5479,4.5608,4.5609,4.5772,4.5674,0,0,0,0,0,0,0,0,0,0,4.5548,4.552,4.5441,4.5443,4.548,4.5608,4.5609,4.5669,4.568,4.5714,0,4.5749,0,4.5764,4.5785,4.5785,0,0,0,4.5475,4.5511,4.5543,4.5443,4.5481,4.5608,4.5549,4.5675,4.5687,4.5729,4.5752,4.5758,4.5767,4.5786,4.5787,4.6006,4.6007,0,0,4.5468,4.5464,4.5535,4.5551,4.5536,4.5545,4.5553,4.5682,4.5706,4.5752,4.5761,4.577,4.5787,4.5788,4.6005,4.6006,0,0,0,4.545,4.546,4.5489,4.5545,4.5568,4.5548,4.5558,4.57,4.571,4.5763,4.5772,4.5788,4.579,4.6003,4.6005,4.6062,0,0,0,4.5446,4.5449,4.5486,4.5485,4.5566,4.5637,4.5572,4.5701,4.5716,4.5771,4.5788,4.5792,4.6002,4.6004,4.6057,4.6088,0,0,0,4.5431,4.5447,4.5467,4.5484,4.554,4.5635,4.5652,4.5704,4.5721,4.5786,4.5792,4.6001,4.6004,4.6053,4.6082,4.6146,0,0,0,4.5413,4.5514,4.5468,4.5584,4.5539,4.5669,4.5651,4.5747,4.5809,4.5789,4.6002,4.6005,4.6052,4.6078,4.6141,4.6199,4.6223,0,0,4.5538,4.5529,4.5597,4.556,4.5698,4.565,4.5795,4.5853,4.586,4.5956,4.5961,4.6059,4.6082,4.6145,4.6355,4.6374,0,0,0,4.5635,4.5684,4.5722,4.5783,4.5832,4.5875,4.5913,4.5934,4.6016,4.591,4.6098,4.6112,4.6149,4.6177,4.6193,4.6224,4.6018,4.6017,4.6017,4.5806,4.5813,4.5926,4.5949,4.6007,4.6045,4.6092,4.6126,4.6114,4.6158,4.6187,4.6314,4.6347,4.6359,4.6392,4.6217,4.6217,4.6218,4.6218,4.599,4.6061,4.6044,4.6148,4.6152,4.6238,4.6277,4.6265,4.6344,4.6293,4.6326,4.6271,4.6379,4.6408,4.6222,4.6221,4.6221,4.622,4.622,4.6104,4.6139,4.6165,4.6253,4.632,4.6337,4.6414,4.6414,4.6415,4.6448,4.6478,4.6477,4.6476,4.6462,4.6462,4.6463,4.6463,4.6463,4.6464,4.6211,4.6239,4.6306,4.6367,4.6406,4.6456,4.6494,4.6531,4.6572,4.6566,4.6566,4.6549,4.6389,4.6349,4.6471,4.6469,4.6468,4.6468,4.6467,4.6396,4.6355,4.6458,4.6498,4.6568,4.6633,4.6633,4.6708,4.6738,4.6776,4.6751,4.6633,4.6623,4.661,4.6577,4.675,4.675,4.675,4.675,4.6493,4.6488,4.6594,4.6656,4.6717,4.6728,4.6841,4.687,4.6893,4.6911,4.6886,4.6842,4.6829,4.6826,4.6809,4.6778,4.6998,4.6998,4.6999,4.6607,4.6608,4.6707,4.6732,4.6787,4.6833,4.6939,4.7008,4.7024,4.7009,4.6925,4.6915,4.6844,4.6821,4.6804,4.6777,4.672,0,0]}]]